This is the latest recevied weather packets stored in our database for station/object KE0TNI-13. If no packets are shown the sender has not sent any weather packets the latest 10 day(s).
| Time | Temp. | Humidity | Pressure | Rain* | Wind** | Luminosity | Snow |
|---|---|---|---|---|---|---|---|
| 1777928335 | 12.22° C | 37% | 1014.4 hPa | 0 mm | - | 215 W/m² | - |
| 1777928033 | 12.78° C | 38% | 1014.3 hPa | 0 mm | - | 226 W/m² | - |
| 1777927730 | 12.78° C | 36% | 1014.1 hPa | 0 mm | - | 338 W/m² | - |
| 1777927429 | 13.33° C | 38% | 1014.4 hPa | 0 mm | - | 552 W/m² | - |
| 1777927128 | 12.78° C | 37% | 1014.5 hPa | 0 mm | - | 507 W/m² | - |
| 1777926824 | 12.78° C | 41% | 1014.7 hPa | 0 mm | - | 371 W/m² | - |
| 1777926520 | 12.78° C | 41% | 1014.7 hPa | 0 mm | - | 725 W/m² | - |
| 1777926217 | 13.33° C | 40% | 1014.5 hPa | 0 mm | - | 220 W/m² | - |
| 1777925914 | 12.22° C | 41% | 1014.7 hPa | 0 mm | - | 599 W/m² | - |
| 1777925611 | 12.78° C | 42% | 1014.7 hPa | 0 mm | - | 217 W/m² | - |
| 1777925309 | 12.22° C | 41% | 1014.8 hPa | 0 mm | - | 162 W/m² | - |
| 1777925005 | 11.67° C | 45% | 1015.2 hPa | 0 mm | - | 217 W/m² | - |
| 1777924701 | 11.67° C | 43% | 1014.9 hPa | 0 mm | - | 263 W/m² | - |
| 1777924397 | 11.11° C | 43% | 1014.8 hPa | 0 mm | - | 259 W/m² | - |
| 1777924094 | 11.11° C | 43% | 1015 hPa | 0 mm | - | 216 W/m² | - |
| 1777923790 | 10.56° C | 44% | 1014.9 hPa | 0 mm | - | 225 W/m² | - |
| 1777923486 | 10.56° C | 42% | 1015 hPa | 0 mm | - | 142 W/m² | - |
| 1777923184 | 10.56° C | 42% | 1014.9 hPa | 0 mm | - | 162 W/m² | - |
| 1777922883 | 10.56° C | 40% | 1015.3 hPa | 0 mm | - | 155 W/m² | - |
| 1777922580 | 10.56° C | 41% | 1015.2 hPa | 0 mm | - | 168 W/m² | - |
| 1777922279 | 11.11° C | 40% | 1015 hPa | 0 mm | - | 197 W/m² | - |
| 1777921975 | 11.67° C | 40% | 1015.2 hPa | 0 mm | - | 234 W/m² | - |
| 1777921671 | 11.11° C | 40% | 1015.2 hPa | 0 mm | - | 253 W/m² | - |
| 1777921367 | 11.67° C | 39% | 1014.9 hPa | 0 mm | - | 268 W/m² | - |
| 1777921064 | 11.11° C | 38% | 1015.2 hPa | 0 mm | - | 197 W/m² | - |
* Rain latest hour (hover to see other rain measurements)
** Current wind speed in m/s (hover to see current wind gust speed)